This is the latest recevied weather packets stored in our database for station/object W4KBW. If no packets are shown the sender has not sent any weather packets the latest 1 day(s).
| Time | Temp. | Humidity | Pressure | Rain* | Wind** | Luminosity | Snow |
|---|---|---|---|---|---|---|---|
| 1778017051 | 29.44° C | 100% | 1013.5 hPa | 0 mm | 2.24 m/s, 60° | - | - |
| 1778016953 | 29.44° C | 100% | 1013.5 hPa | 0 mm | 2.24 m/s, 60° | - | - |
| 1778016173 | 28.89° C | 100% | 1013.4 hPa | 0 mm | 1.34 m/s, 105° | - | - |
| 1778016023 | 28.89° C | 100% | 1013.4 hPa | 0 mm | 1.34 m/s, 105° | - | - |
| 1778015093 | 28.89° C | 100% | 1013.4 hPa | 0 mm | 0 m/s | - | - |
| 1778014163 | 29.44° C | 100% | 1013.4 hPa | 0 mm | 0.45 m/s, 91° | - | - |
| 1778013340 | 30° C | 100% | 1013.5 hPa | 0 mm | 1.79 m/s, 64° | - | - |
| 1778013233 | 30° C | 100% | 1013.5 hPa | 0 mm | 1.79 m/s, 64° | - | - |
| 1778012410 | 30° C | 100% | 1013.7 hPa | 0 mm | 1.34 m/s, 88° | - | - |
| 1778012303 | 30° C | 100% | 1013.7 hPa | 0 mm | 1.34 m/s, 88° | - | - |
| 1778011527 | 29.44° C | 100% | 1013.8 hPa | 0 mm | 0.89 m/s, 72° | - | - |
| 1778011403 | 29.44° C | 100% | 1013.8 hPa | 0 mm | 0.89 m/s, 72° | - | - |
| 1778010547 | 29.44° C | 100% | 1014.1 hPa | 0 mm | 0.89 m/s, 58° | - | - |
| 1778010473 | 29.44° C | 100% | 1014.1 hPa | 0 mm | 0.89 m/s, 58° | - | - |
| 1778009617 | 30.56° C | 100% | 1014 hPa | 0 mm | 1.34 m/s, 49° | - | - |
| 1778009543 | 30.56° C | 100% | 1014 hPa | 0 mm | 1.34 m/s, 49° | - | - |
| 1778008717 | 31.11° C | 100% | 1014.3 hPa | 0 mm | 0.45 m/s, 86° | - | - |
| 1778008613 | 31.11° C | 100% | 1014.3 hPa | 0 mm | 0.45 m/s, 86° | - | - |
| 1778007813 | 31.11° C | 100% | 1014.3 hPa | 0 mm | 0.45 m/s, 100° | - | - |
| 1778007713 | 31.11° C | 100% | 1014.3 hPa | 0 mm | 0.45 m/s, 100° | - | - |
| 1778006862 | 30° C | 100% | 1014.6 hPa | 0 mm | 0 m/s | - | - |
| 1778006783 | 30° C | 100% | 1014.6 hPa | 0 mm | 0 m/s | - | - |
| 1778005950 | 30.56° C | 100% | 1014.6 hPa | 0 mm | 2.24 m/s, 160° | - | - |
| 1778005853 | 30.56° C | 100% | 1014.6 hPa | 0 mm | 2.24 m/s, 160° | - | - |
| 1778004953 | 30.56° C | 100% | 1014.9 hPa | 0 mm | 0 m/s | - | - |
* Rain latest hour (hover to see other rain measurements)
** Current wind speed in m/s (hover to see current wind gust speed)